California, MD

1:57 AM EDT on September 30, 2016 (GMT -0400)
Leonardtown

Weather History for K2W6 - January, 2013

Change the Weather History Date:

Tuesday, January 29, 2013

  Actual Average (KNHK) Record (KNHK)
Temperature  
Mean Temperature 54 °F -  
Max Temperature 66 °F 39 °F 71 °F (2002)
Min Temperature 42 °F 21 °F 4 °F (1977)
Degree Days  
Heating Degree Days 11    
Growing Degree Days 4 (Base 50)    
Moisture  
Dew Point 44 °F    
Average Humidity 71    
Maximum Humidity 93    
Minimum Humidity 52    
Precipitation  
Precipitation 0.00 in - - ()
Sea Level Pressure  
Sea Level Pressure 30.09 in    
Wind  
Wind Speed 6 mph (SSW)    
Max Wind Speed 10 mph    
Max Gust Speed -    
Visibility 10 miles    
Events      
Averages and records for this station are not official NWS values.
T = Trace of Precipitation, MM = Missing Value Source: NWS Daily Summary

Daily Weather History Graph

Daily Weather History Graph

Search for Another Location

Airport or City:

Trip Planner

Search our weather history database for the weather conditions in past years. The results will help you decide how hot, cold, wet, or windy it might be!

Date:

Astronomy

Jan. 29, 2013 Rise Set
Actual Time 7:13 AM EST 5:25 PM EST
Civil Twilight 6:45 AM EST 5:53 PM EST
Nautical Twilight 6:13 AM EST 6:25 PM EST
Astronomical Twilight 5:42 AM EST 6:56 PM EST
Moon 8:16 PM EST (1/29) 8:12 AM EST (1/29)
Length of Visible Light 11h 08m
Length of Day
10h 12m
Waning Gibbous, 94% of the Moon is Illuminated
Jan 29
Waning Gibbous
Feb 3
Last Quarter
Feb 10
New
Feb 17
First Quarter
Feb 25
Full

Hourly Weather History & Observations

Time (EST) Temp. Windchill Dew Point Humidity Pressure Visibility Wind Dir Wind Speed Gust Speed Precip Events Conditions
12:17 AM 48.2 °F - 41.0 °F 76% 30.09 in 10.0 mi SW 8.1 mph - N/A   Clear
12:38 AM 46.4 °F 42.9 °F 41.0 °F 81% 30.09 in 10.0 mi SW 6.9 mph - N/A   Clear
1:00 AM 46.4 °F 42.4 °F 41.0 °F 81% 30.09 in 10.0 mi SW 8.1 mph - N/A   Clear
1:21 AM 46.4 °F 42.4 °F 41.0 °F 81% 30.08 in 10.0 mi SW 8.1 mph - N/A   Clear
1:42 AM 46.4 °F 42.9 °F 41.0 °F 81% 30.09 in 10.0 mi WSW 6.9 mph - N/A   Clear
2:04 AM 46.4 °F 41.5 °F 41.0 °F 81% 30.08 in 10.0 mi SW 10.4 mph - N/A   Clear
2:25 AM 46.4 °F 42.9 °F 41.0 °F 81% 30.08 in 10.0 mi WSW 6.9 mph - N/A   Clear
2:46 AM 46.4 °F 41.9 °F 41.0 °F 81% 30.09 in 10.0 mi WSW 9.2 mph - N/A   Clear
3:07 AM 46.4 °F 42.4 °F 41.0 °F 81% 30.09 in 10.0 mi WSW 8.1 mph - N/A   Clear
3:29 AM 46.4 °F 41.5 °F 41.0 °F 81% 30.08 in 10.0 mi WSW 10.4 mph - N/A   Clear
3:50 AM 46.4 °F 41.9 °F 41.0 °F 81% 30.09 in 10.0 mi WSW 9.2 mph - N/A   Clear
4:11 AM 46.4 °F 41.9 °F 41.0 °F 81% 30.09 in 10.0 mi WSW 9.2 mph - N/A   Clear
4:33 AM 46.4 °F 42.9 °F 41.0 °F 81% 30.09 in 10.0 mi WSW 6.9 mph - N/A   Clear
4:54 AM 46.4 °F 42.9 °F 41.0 °F 81% 30.09 in 10.0 mi WSW 6.9 mph - N/A   Clear
5:15 AM 44.6 °F 42.2 °F 41.0 °F 87% 30.09 in 10.0 mi SW 4.6 mph - N/A   Clear
5:37 AM 44.6 °F 41.4 °F 41.0 °F 87% 30.11 in 10.0 mi WSW 5.8 mph - N/A   Clear
5:58 AM 44.6 °F 43.1 °F 41.0 °F 87% 30.11 in 10.0 mi SW 3.5 mph - N/A   Clear
6:19 AM 44.6 °F - 41.0 °F 87% 30.11 in 10.0 mi Calm Calm - N/A   Clear
6:40 AM 44.6 °F - 39.2 °F 81% 30.12 in 10.0 mi Calm Calm - N/A   Clear
7:02 AM 44.6 °F - 41.0 °F 87% 30.13 in 10.0 mi Calm Calm - N/A   Clear
7:23 AM 42.8 °F - 39.2 °F 87% 30.13 in 7.0 mi Calm Calm - N/A   Clear
7:44 AM 42.8 °F - 39.2 °F 87% 30.14 in 7.0 mi Calm Calm - N/A   Clear
8:05 AM 42.8 °F - 41.0 °F 93% 30.14 in 7.0 mi Calm Calm - N/A   Clear
8:26 AM 46.4 °F - 41.0 °F 81% 30.14 in 10.0 mi Calm Calm - N/A   Clear
8:48 AM 48.2 °F - 41.0 °F 76% 30.14 in 10.0 mi South 3.5 mph - N/A   Scattered Clouds
9:09 AM 51.8 °F - 42.8 °F 71% 30.14 in 10.0 mi WSW 3.5 mph - N/A   Scattered Clouds
9:30 AM 51.8 °F - 42.8 °F 71% 30.14 in 10.0 mi SSW 3.5 mph - N/A   Scattered Clouds
9:51 AM 51.8 °F - 42.8 °F 71% 30.15 in 10.0 mi WSW 5.8 mph - N/A   Clear
10:13 AM 53.6 °F - 42.8 °F 67% 30.15 in 10.0 mi WSW 3.5 mph - N/A   Clear
10:34 AM 55.4 °F - 44.6 °F 67% 30.15 in 10.0 mi WSW 4.6 mph - N/A   Clear
10:55 AM 59.0 °F - 44.6 °F 59% 30.16 in 10.0 mi WSW 6.9 mph - N/A   Clear
11:16 AM 59.0 °F - 44.6 °F 59% 30.15 in 10.0 mi WSW 3.5 mph - N/A   Clear
11:38 AM 59.0 °F - 44.6 °F 59% 30.13 in 10.0 mi South 4.6 mph - N/A   Clear
11:59 AM 60.8 °F - 46.4 °F 59% 30.12 in 10.0 mi WSW 3.5 mph - N/A   Clear
12:20 PM 62.6 °F - 46.4 °F 55% 30.11 in 10.0 mi WSW 4.6 mph - N/A   Clear
12:41 PM 64.4 °F - 46.4 °F 52% 30.10 in 10.0 mi West 4.6 mph - N/A   Clear
1:02 PM 64.4 °F - 46.4 °F 52% 30.10 in 10.0 mi SW 4.6 mph - N/A   Clear
1:24 PM 64.4 °F - 46.4 °F 52% 30.10 in 10.0 mi West 4.6 mph - N/A   Clear
1:45 PM 66.2 °F - 48.2 °F 52% 30.08 in 10.0 mi SSE 4.6 mph - N/A   Clear
2:06 PM 66.2 °F - 48.2 °F 52% 30.07 in 10.0 mi SSE 5.8 mph - N/A   Clear
2:27 PM 64.4 °F - 46.4 °F 52% 30.07 in 10.0 mi ENE 6.9 mph - N/A   Clear
2:49 PM 64.4 °F - 46.4 °F 52% 30.07 in 10.0 mi East 3.5 mph - N/A   Clear
3:10 PM 64.4 °F - 46.4 °F 52% 30.07 in 10.0 mi NNE 3.5 mph - N/A   Clear
3:31 PM 64.4 °F - 46.4 °F 52% 30.07 in 10.0 mi SSE 5.8 mph - N/A   Clear
3:52 PM 64.4 °F - 48.2 °F 56% 30.07 in 10.0 mi South 4.6 mph - N/A   Clear
4:14 PM 64.4 °F - 48.2 °F 56% 30.07 in 10.0 mi SSE 6.9 mph - N/A   Clear
4:35 PM 62.6 °F - 48.2 °F 59% 30.08 in 10.0 mi SE 9.2 mph - N/A   Clear
4:56 PM 60.8 °F - 48.2 °F 63% 30.07 in 10.0 mi SE 8.1 mph - N/A   Clear
5:17 PM 60.8 °F - 46.4 °F 59% 30.07 in 10.0 mi SE 6.9 mph - N/A   Clear
5:38 PM 59.0 °F - 46.4 °F 63% 30.08 in 10.0 mi SSE 4.6 mph - N/A   Clear
6:00 PM 57.2 °F - 46.4 °F 67% 30.07 in 10.0 mi SE 4.6 mph - N/A   Clear
6:21 PM 57.2 °F - 46.4 °F 67% 30.08 in 10.0 mi SSE 3.5 mph - N/A   Clear
6:42 PM 57.2 °F - 46.4 °F 67% 30.07 in 10.0 mi SE 4.6 mph - N/A   Clear
7:03 PM 57.2 °F - 46.4 °F 67% 30.06 in 10.0 mi SE 6.9 mph - N/A   Clear
7:25 PM 55.4 °F - 46.4 °F 72% 30.06 in 10.0 mi SE 5.8 mph - N/A   Clear
7:46 PM 55.4 °F - 46.4 °F 72% 30.06 in 10.0 mi SE 4.6 mph - N/A   Clear
8:07 PM 55.4 °F - 46.4 °F 72% 30.06 in 10.0 mi SSE 5.8 mph - N/A   Clear
8:28 PM 55.4 °F - 46.4 °F 72% 30.06 in 10.0 mi SSE 8.1 mph - N/A   Clear
8:50 PM 53.6 °F - 46.4 °F 77% 30.07 in 10.0 mi SSE 4.6 mph - N/A   Clear
9:11 PM 53.6 °F - 46.4 °F 77% 30.06 in 10.0 mi SSE 4.6 mph - N/A   Clear
9:32 PM 53.6 °F - 46.4 °F 77% 30.06 in 10.0 mi South 4.6 mph - N/A   Clear
9:53 PM 53.6 °F - 46.4 °F 77% 30.05 in 10.0 mi South 4.6 mph - N/A   Clear
10:15 PM 53.6 °F - 46.4 °F 77% 30.05 in 10.0 mi South 3.5 mph - N/A   Clear
10:57 PM 53.6 °F - 46.4 °F 77% 30.06 in 10.0 mi SSW 3.5 mph - N/A   Clear
11:18 PM 53.6 °F - 46.4 °F 77% 30.05 in 10.0 mi South 3.5 mph - N/A   Clear
11:40 PM 55.4 °F - 48.2 °F 77% 30.04 in 10.0 mi South 3.5 mph - N/A   Clear